Time,TemperatureF,DewpointF,PressureIn,WindDirection,WindDirectionDegrees,WindSpeedMPH,WindSpeedGustMPH,Humidity,HourlyPrecipIn,Conditions,Clouds,dailyrainin,SoftwareType,DateUTC
2013-02-19 00:11:00,19.9,10.0,30.18,ESE,104,0.0,0.0,65,0.00,,,0.00,weatherlink.com 1.10,2013-02-19 05:11:00,
2013-02-19 00:26:00,19.6,11.0,30.18,ESE,104,0.0,0.0,68,0.00,,,0.00,weatherlink.com 1.10,2013-02-19 05:26:00,
2013-02-19 00:41:00,19.4,10.0,30.18,ESE,104,0.0,1.0,68,0.00,,,0.00,weatherlink.com 1.10,2013-02-19 05:41:00,
2013-02-19 00:56:00,19.4,10.0,30.18,NNE,28,0.0,2.0,68,0.00,,,0.00,weatherlink.com 1.10,2013-02-19 05:56:00,
2013-02-19 01:11:00,19.0,11.0,30.17,NNE,28,0.0,0.0,70,0.00,,,0.00,weatherlink.com 1.10,2013-02-19 06:11:00,
2013-02-19 01:27:00,18.5,10.0,30.17,NNE,28,0.0,0.0,70,0.00,,,0.00,weatherlink.com 1.10,2013-02-19 06:27:00,
2013-02-19 01:41:00,18.0,10.0,30.17,NNE,28,0.0,0.0,72,0.00,,,0.00,weatherlink.com 1.10,2013-02-19 06:41:00,
2013-02-19 01:57:00,17.9,11.0,30.16,NNE,28,0.0,0.0,73,0.00,,,0.00,weatherlink.com 1.10,2013-02-19 06:57:00,
2013-02-19 02:12:00,17.6,11.0,30.16,NNE,28,0.0,0.0,75,0.00,,,0.00,weatherlink.com 1.10,2013-02-19 07:12:00,
2013-02-19 02:27:00,17.8,11.0,30.16,NNE,28,0.0,0.0,76,0.00,,,0.00,weatherlink.com 1.10,2013-02-19 07:27:00,
2013-02-19 02:42:00,18.0,11.0,30.15,NNE,28,0.0,1.0,74,0.00,,,0.00,weatherlink.com 1.10,2013-02-19 07:42:00,
2013-02-19 03:12:00,17.4,11.0,30.13,NNE,28,0.0,0.0,76,0.00,,,0.00,weatherlink.com 1.10,2013-02-19 08:12:00,
2013-02-19 03:27:00,17.2,11.0,30.13,NNE,28,0.0,0.0,75,0.00,,,0.00,weatherlink.com 1.10,2013-02-19 08:27:00,
2013-02-19 03:42:00,17.1,10.0,30.13,NNE,28,0.0,0.0,75,0.00,,,0.00,weatherlink.com 1.10,2013-02-19 08:42:00,
2013-02-19 03:57:00,16.9,11.0,30.12,NNE,28,0.0,0.0,76,0.00,,,0.00,weatherlink.com 1.10,2013-02-19 08:57:00,
2013-02-19 04:12:00,16.6,11.0,30.12,NNE,28,0.0,0.0,78,0.00,,,0.00,weatherlink.com 1.10,2013-02-19 09:12:00,
2013-02-19 04:27:00,16.4,11.0,30.11,NNE,28,0.0,1.0,80,0.00,,,0.00,weatherlink.com 1.10,2013-02-19 09:27:00,
2013-02-19 04:42:00,16.2,11.0,30.11,NNE,28,0.0,0.0,81,0.00,,,0.00,weatherlink.com 1.10,2013-02-19 09:42:00,
2013-02-19 04:57:00,15.8,11.0,30.10,NNE,28,0.0,0.0,81,0.00,,,0.00,weatherlink.com 1.10,2013-02-19 09:57:00,
2013-02-19 05:12:00,15.5,11.0,30.09,NNE,28,0.0,0.0,81,0.00,,,0.00,weatherlink.com 1.10,2013-02-19 10:12:00,
2013-02-19 05:27:00,15.3,11.0,30.08,NNE,28,0.0,1.0,83,0.00,,,0.00,weatherlink.com 1.10,2013-02-19 10:27:00,
2013-02-19 05:42:00,15.4,11.0,30.07,NNE,28,0.0,0.0,84,0.00,,,0.00,weatherlink.com 1.10,2013-02-19 10:42:00,
2013-02-19 05:57:00,15.5,12.0,30.06,NNE,28,0.0,1.0,84,0.00,,,0.00,weatherlink.com 1.10,2013-02-19 10:57:00,
2013-02-19 06:12:00,15.3,11.0,30.05,NNE,28,0.0,1.0,83,0.00,,,0.00,weatherlink.com 1.10,2013-02-19 11:12:00,
2013-02-19 06:27:00,15.2,11.0,30.05,NNE,28,0.0,0.0,83,0.00,,,0.00,weatherlink.com 1.10,2013-02-19 11:27:00,
2013-02-19 06:42:00,15.0,11.0,30.04,NNE,28,0.0,0.0,84,0.00,,,0.00,weatherlink.com 1.10,2013-02-19 11:42:00,
2013-02-19 06:57:00,14.9,11.0,30.04,NNE,28,0.0,1.0,85,0.00,,,0.00,weatherlink.com 1.10,2013-02-19 11:57:00,
2013-02-19 07:12:00,15.0,11.0,30.04,NNE,28,0.0,0.0,85,0.00,,,0.00,weatherlink.com 1.10,2013-02-19 12:12:00,
2013-02-19 07:27:00,15.5,12.0,30.03,NNE,28,0.0,0.0,85,0.00,,,0.00,weatherlink.com 1.10,2013-02-19 12:27:00,
2013-02-19 07:42:00,16.3,13.0,30.04,NNE,28,0.0,1.0,85,0.00,,,0.00,weatherlink.com 1.10,2013-02-19 12:42:00,
2013-02-19 07:57:00,17.4,13.0,30.03,NNE,28,0.0,1.0,83,0.00,,,0.00,weatherlink.com 1.10,2013-02-19 12:57:00,
2013-02-19 08:12:00,19.0,14.0,30.03,ENE,59,0.0,3.0,80,0.00,,,0.00,weatherlink.com 1.10,2013-02-19 13:12:00,
2013-02-19 08:27:00,20.5,14.0,30.03,ENE,59,1.0,1.0,76,0.00,,,0.00,weatherlink.com 1.10,2013-02-19 13:27:00,
2013-02-19 08:42:00,22.2,14.0,30.01,NE,34,0.0,2.0,71,0.00,,,0.00,weatherlink.com 1.10,2013-02-19 13:42:00,
2013-02-19 08:57:00,23.8,14.0,30.00,NNE,27,0.0,2.0,67,0.00,,,0.00,weatherlink.com 1.10,2013-02-19 13:57:00,
2013-02-19 09:13:00,25.2,15.0,29.99,NNE,27,0.0,3.0,65,0.00,,,0.00,weatherlink.com 1.10,2013-02-19 14:13:00,
2013-02-19 09:28:00,26.2,16.0,29.98,NNE,28,0.0,2.0,65,0.00,,,0.00,weatherlink.com 1.10,2013-02-19 14:28:00,
2013-02-19 09:43:00,26.9,16.0,29.99,ESE,118,1.0,3.0,63,0.00,,,0.00,weatherlink.com 1.10,2013-02-19 14:43:00,
2013-02-19 09:58:00,28.1,16.0,29.96,South,173,0.0,4.0,62,0.00,,,0.00,weatherlink.com 1.10,2013-02-19 14:58:00,
2013-02-19 10:13:00,29.6,18.0,29.95,East,95,1.0,6.0,63,0.00,,,0.00,weatherlink.com 1.10,2013-02-19 15:13:00,
2013-02-19 10:28:00,32.9,20.0,29.94,SE,146,0.0,13.0,59,0.00,,,0.00,weatherlink.com 1.10,2013-02-19 15:28:00,
2013-02-19 10:43:00,33.3,20.0,29.93,East,95,3.0,11.0,58,0.00,,,0.00,weatherlink.com 1.10,2013-02-19 15:43:00,
2013-02-19 10:58:00,33.8,20.0,29.92,SE,132,9.0,14.0,58,0.00,,,0.00,weatherlink.com 1.10,2013-02-19 15:58:00,
2013-02-19 11:13:00,34.6,21.0,29.91,ESE,113,9.0,17.0,57,0.01,,,0.01,weatherlink.com 1.10,2013-02-19 16:13:00,
2013-02-19 11:28:00,35.4,21.0,29.90,SE,128,2.0,11.0,57,0.01,,,0.01,weatherlink.com 1.10,2013-02-19 16:28:00,
2013-02-19 11:43:00,36.0,22.0,29.88,NE,55,6.0,13.0,57,0.01,,,0.01,weatherlink.com 1.10,2013-02-19 16:43:00,
2013-02-19 11:58:00,36.0,22.0,29.88,North,360,0.0,14.0,57,0.01,,,0.01,weatherlink.com 1.10,2013-02-19 16:58:00,
2013-02-19 12:13:00,36.6,22.0,29.86,ESE,109,12.0,16.0,57,0.00,,,0.01,weatherlink.com 1.10,2013-02-19 17:13:00,
2013-02-19 12:28:00,36.9,23.0,29.85,ESE,117,1.0,16.0,57,0.00,,,0.01,weatherlink.com 1.10,2013-02-19 17:28:00,
2013-02-19 12:43:00,37.7,23.0,29.85,North,355,6.0,15.0,56,0.00,,,0.01,weatherlink.com 1.10,2013-02-19 17:43:00,
2013-02-19 12:58:00,37.8,24.0,29.84,SSE,159,3.0,17.0,57,0.00,,,0.01,weatherlink.com 1.10,2013-02-19 17:58:00,
2013-02-19 13:13:00,38.5,25.0,29.83,East,80,5.0,14.0,58,0.00,,,0.01,weatherlink.com 1.10,2013-02-19 18:13:00,
2013-02-19 13:28:00,37.8,27.0,29.83,WSW,242,1.0,11.0,64,0.00,,,0.01,weatherlink.com 1.10,2013-02-19 18:28:00,
2013-02-19 13:43:00,37.0,28.0,29.83,NNE,27,2.0,11.0,70,0.00,,,0.01,weatherlink.com 1.10,2013-02-19 18:43:00,
2013-02-19 13:58:00,36.6,29.0,29.83,East,93,5.0,11.0,75,0.00,,,0.01,weatherlink.com 1.10,2013-02-19 18:58:00,
2013-02-19 14:13:00,36.2,30.0,29.80,SSW,199,5.0,13.0,78,0.00,,,0.01,weatherlink.com 1.10,2013-02-19 19:13:00,
2013-02-19 14:28:00,35.5,31.0,29.79,SE,134,4.0,15.0,82,0.00,,,0.01,weatherlink.com 1.10,2013-02-19 19:28:00,
2013-02-19 14:43:00,36.2,31.0,29.79,SE,138,2.0,14.0,81,0.00,,,0.01,weatherlink.com 1.10,2013-02-19 19:43:00,
2013-02-19 14:59:00,36.6,31.0,29.78,South,170,1.0,8.0,81,0.00,,,0.01,weatherlink.com 1.10,2013-02-19 19:59:00,
2013-02-19 15:14:00,37.2,32.0,29.77,South,170,7.0,12.0,80,0.00,,,0.01,weatherlink.com 1.10,2013-02-19 20:14:00,
2013-02-19 15:29:00,37.8,32.0,29.76,South,174,3.0,12.0,80,0.00,,,0.01,weatherlink.com 1.10,2013-02-19 20:29:00,
2013-02-19 15:44:00,37.8,32.0,29.75,SSE,148,4.0,15.0,81,0.00,,,0.01,weatherlink.com 1.10,2013-02-19 20:44:00,
2013-02-19 15:59:00,37.5,33.0,29.74,SSE,147,0.0,11.0,83,0.00,,,0.01,weatherlink.com 1.10,2013-02-19 20:59:00,
2013-02-19 16:14:00,37.2,33.0,29.74,SSE,163,0.0,10.0,84,0.00,,,0.01,weatherlink.com 1.10,2013-02-19 21:14:00,
2013-02-19 16:29:00,36.7,33.0,29.73,SSE,152,1.0,8.0,86,0.00,,,0.01,weatherlink.com 1.10,2013-02-19 21:29:00,
2013-02-19 16:44:00,36.0,33.0,29.73,South,171,2.0,5.0,88,0.00,,,0.01,weatherlink.com 1.10,2013-02-19 21:44:00,
2013-02-19 16:59:00,35.6,33.0,29.72,East,96,0.0,3.0,89,0.00,,,0.01,weatherlink.com 1.10,2013-02-19 21:59:00,
2013-02-19 17:14:00,35.3,33.0,29.73,ESE,116,1.0,2.0,90,0.00,,,0.01,weatherlink.com 1.10,2013-02-19 22:14:00,
2013-02-19 17:29:00,35.0,33.0,29.72,East,86,2.0,3.0,91,0.00,,,0.01,weatherlink.com 1.10,2013-02-19 22:29:00,
2013-02-19 17:44:00,34.6,33.0,29.72,ENE,63,3.0,3.0,92,0.00,,,0.01,weatherlink.com 1.10,2013-02-19 22:44:00,
2013-02-19 17:59:00,34.4,33.0,29.71,ENE,78,0.0,5.0,93,0.00,,,0.01,weatherlink.com 1.10,2013-02-19 22:59:00,
2013-02-19 18:14:00,34.3,33.0,29.71,ESE,115,7.0,7.0,93,0.00,,,0.01,weatherlink.com 1.10,2013-02-19 23:14:00,
2013-02-19 18:29:00,34.3,33.0,29.71,East,92,1.0,4.0,94,0.00,,,0.01,weatherlink.com 1.10,2013-02-19 23:29:00,
2013-02-19 18:44:00,34.4,33.0,29.70,ESE,116,0.0,3.0,94,0.00,,,0.01,weatherlink.com 1.10,2013-02-19 23:44:00,
2013-02-19 18:59:00,34.1,33.0,29.70,East,98,0.0,0.0,94,0.00,,,0.01,weatherlink.com 1.10,2013-02-19 23:59:00,
2013-02-19 19:14:00,33.9,32.0,29.68,East,98,0.0,0.0,94,0.00,,,0.01,weatherlink.com 1.10,2013-02-20 00:14:00,
2013-02-19 19:29:00,33.9,33.0,29.69,East,98,0.0,0.0,95,0.00,,,0.01,weatherlink.com 1.10,2013-02-20 00:29:00,
2013-02-19 19:44:00,33.6,32.0,29.69,SE,142,0.0,1.0,95,0.00,,,0.01,weatherlink.com 1.10,2013-02-20 00:44:00,
2013-02-19 19:59:00,33.4,32.0,29.68,SE,142,1.0,1.0,95,0.00,,,0.01,weatherlink.com 1.10,2013-02-20 00:59:00,
2013-02-19 20:14:00,33.3,32.0,29.67,ESE,107,0.0,0.0,96,0.01,,,0.02,weatherlink.com 1.10,2013-02-20 01:14:00,
2013-02-19 20:29:00,33.2,32.0,29.66,ESE,107,0.0,0.0,96,0.01,,,0.02,weatherlink.com 1.10,2013-02-20 01:29:00,
2013-02-19 20:44:00,33.0,32.0,29.66,NE,46,0.0,3.0,96,0.01,,,0.02,weatherlink.com 1.10,2013-02-20 01:44:00,
2013-02-19 20:59:00,34.1,33.0,29.66,NE,36,0.0,4.0,97,0.01,,,0.02,weatherlink.com 1.10,2013-02-20 01:59:00,
2013-02-19 21:14:00,33.5,33.0,29.65,SSW,198,2.0,3.0,96,0.00,,,0.02,weatherlink.com 1.10,2013-02-20 02:14:00,
2013-02-19 21:29:00,34.5,34.0,29.66,SSW,199,1.0,4.0,96,0.00,,,0.02,weatherlink.com 1.10,2013-02-20 02:29:00,
2013-02-19 21:44:00,35.1,34.0,29.65,SSW,198,0.0,3.0,95,0.00,,,0.02,weatherlink.com 1.10,2013-02-20 02:44:00,
2013-02-19 21:59:00,34.9,34.0,29.65,SW,222,1.0,3.0,95,0.00,,,0.02,weatherlink.com 1.10,2013-02-20 02:59:00,
2013-02-19 22:14:00,34.5,33.0,29.66,South,184,0.0,3.0,94,0.00,,,0.02,weatherlink.com 1.10,2013-02-20 03:14:00,
2013-02-19 22:29:00,33.5,32.0,29.66,South,184,0.0,2.0,95,0.00,,,0.02,weatherlink.com 1.10,2013-02-20 03:29:00,
2013-02-19 22:44:00,33.1,32.0,29.66,South,184,0.0,1.0,95,0.00,,,0.02,weatherlink.com 1.10,2013-02-20 03:44:00,
2013-02-19 22:59:00,33.0,32.0,29.68,NNE,17,3.0,11.0,94,0.00,,,0.02,weatherlink.com 1.10,2013-02-20 03:59:00,
2013-02-19 23:14:00,32.5,31.0,29.69,SW,216,0.0,5.0,94,0.00,,,0.02,weatherlink.com 1.10,2013-02-20 04:14:00,
2013-02-19 23:29:00,32.4,31.0,29.69,ENE,59,0.0,4.0,93,0.00,,,0.02,weatherlink.com 1.10,2013-02-20 04:29:00,
2013-02-19 23:44:00,32.2,31.0,29.69,NE,36,0.0,5.0,94,0.00,,,0.02,weatherlink.com 1.10,2013-02-20 04:44:00,
2013-02-19 23:59:00,32.0,30.0,29.69,West,263,0.0,9.0,93,0.00,,,0.02,weatherlink.com 1.10,2013-02-20 04:59:00,